Marianna, FL

7:11 PM CST on February 27, 2017 (GMT -0600)
Marianna Municipal

Weather History for KMAI - September, 2013

Change the Weather History Date:

Monday, September 9, 2013

  Actual Average Record
Temperature  
Mean Temperature 82 °F 80 °F  
Max Temperature 94 °F 90 °F 100 °F (2010)
Min Temperature 69 °F 70 °F 61 °F (2011)
Degree Days  
Heating Degree Days 0    
Month to date heating degree days 0  
Since 1 July heating degree days 0  
Cooling Degree Days 17    
Month to date cooling degree days 153  
Year to date cooling degree days 2016  
Growing Degree Days 31 (Base 50)    
Moisture  
Dew Point 70 °F    
Average Humidity 70    
Maximum Humidity 90    
Minimum Humidity 49    
Precipitation  
Precipitation 0.00 in 0.13 in 0.62 in (2006)
Month to date precipitation 0.49 1.16  
Year to date precipitation 51.17 39.49  
Sea Level Pressure  
Sea Level Pressure 30.01 in    
Wind  
Wind Speed 3 mph (NE)    
Max Wind Speed 14 mph    
Max Gust Speed 18 mph    
Visibility 10 miles    
Events Rain , Thunderstorm    
T = Trace of Precipitation, MM = Missing Value Source: NWS Daily Summary

Daily Weather History Graph

Daily Weather History Graph

Search for Another Location

Airport or City:

Trip Planner

Search our weather history database for the weather conditions in past years. The results will help you decide how hot, cold, wet, or windy it might be!

Date:

Astronomy

Sep. 09, 2013 Rise Set
Actual Time 6:21 AM CDT 6:53 PM CDT
Civil Twilight 5:57 AM CDT 7:17 PM CDT
Nautical Twilight 5:28 AM CDT 7:46 PM CDT
Astronomical Twilight 4:59 AM CDT 8:15 PM CDT
Moon 10:21 AM CDT (9/9) 9:31 PM CDT (9/9)
Length of Visible Light 13h 20m
Length of Day
12h 31m
Waxing Crescent, 19% of the Moon is Illuminated
Sep 9
Waxing Crescent
Sep 12
First Quarter
Sep 19
Full
Sep 26
Last Quarter
Oct 4
New

Hourly Weather History & Observations

Time (CDT) Temp. Heat Index Dew Point Humidity Pressure Visibility Wind Dir Wind Speed Gust Speed Precip Events Conditions
12:53 AM 71.1 °F - 69.1 °F 93% 29.97 in 10.0 mi Calm Calm - 0.00 in   Clear
1:53 AM 73.0 °F - 69.1 °F 87% 29.97 in 10.0 mi Calm Calm - 0.00 in   Clear
2:53 AM 72.0 °F - 69.1 °F 91% 29.96 in 10.0 mi Calm Calm - 0.00 in Rain Light Rain
3:53 AM 71.1 °F - 69.1 °F 93% 29.97 in 8.0 mi Calm Calm - 0.00 in   Clear
4:53 AM 71.1 °F - 68.0 °F 90% 29.98 in 9.0 mi Calm Calm - N/A   Clear
5:53 AM 71.1 °F - 68.0 °F 90% 29.99 in 9.0 mi Calm Calm - N/A   Clear
6:53 AM 71.1 °F - 68.0 °F 90% 30.01 in 10.0 mi Calm Calm - N/A   Clear
7:53 AM 75.0 °F - 71.1 °F 87% 30.03 in 10.0 mi Calm Calm - N/A   Clear
8:53 AM 82.0 °F 85.9 °F 70.0 °F 67% 30.04 in 10.0 mi NNW 3.5 mph - N/A   Clear
9:53 AM 87.1 °F 91.3 °F 69.1 °F 55% 30.05 in 10.0 mi North 3.5 mph - N/A   Clear
10:53 AM 89.1 °F 94.1 °F 70.0 °F 53% 30.04 in 10.0 mi Variable 4.6 mph - N/A   Clear
11:53 AM 90.0 °F 94.5 °F 69.1 °F 50% 30.04 in 10.0 mi ENE 3.5 mph - N/A   Clear
12:53 PM 91.0 °F 95.6 °F 69.1 °F 48% 30.03 in 10.0 mi NE 4.6 mph - N/A   Clear
1:53 PM 91.9 °F 95.9 °F 68.0 °F 45% 30.01 in 10.0 mi North 5.8 mph - 0.00 in Rain Light Rain
2:53 PM 91.9 °F 96.9 °F 69.1 °F 47% 29.99 in 10.0 mi North 6.9 mph - 0.00 in   Mostly Cloudy
3:53 PM 91.0 °F 95.6 °F 69.1 °F 48% 29.98 in 10.0 mi North 4.6 mph - N/A   Overcast
4:14 PM 86.0 °F 91.8 °F 71.6 °F 62% 29.99 in 10.0 mi ESE 13.8 mph 18.4 mph N/A Thunderstorm Mostly Cloudy
4:53 PM 82.0 °F 86.7 °F 72.0 °F 71% 30.00 in 10.0 mi SSE 8.1 mph - 0.00 in Rain Light Rain
5:53 PM 81.0 °F 84.4 °F 70.0 °F 69% 29.99 in 10.0 mi South 4.6 mph - 0.00 in Rain Light Rain
6:53 PM 79.0 °F - 69.1 °F 72% 30.01 in 10.0 mi North 3.5 mph - 0.00 in Rain Light Rain
7:53 PM 77.0 °F - 71.1 °F 82% 30.02 in 10.0 mi Calm Calm - 0.00 in   Partly Cloudy
8:53 PM 75.9 °F - 71.1 °F 85% 30.03 in 10.0 mi Calm Calm - N/A   Clear
9:53 PM 75.9 °F - 72.0 °F 87% 30.05 in 10.0 mi Calm Calm - N/A   Partly Cloudy
10:53 PM 75.0 °F - 72.0 °F 90% 30.06 in 10.0 mi East 5.8 mph - N/A   Mostly Cloudy
11:53 PM 75.0 °F - 71.1 °F 87% 30.06 in 10.0 mi Calm Calm - N/A   Scattered Clouds